Wind from 058 at 3 knots gusting 4

Air temperature 12.8° C
Dewpoint 11.8° C

Last reported at 2014-Apr-20 21:50 UTC.
Time now 2014-Apr-21 04:46 UTC

Location: N 39°14' W 009°18'.
View on Google Maps.

See reports from other nearby stations

Tides Stations Pressure Air Temp Water Temp Dewpoint Dewpoint depression Visibility Wind Speed Wind Dir Waves Ship positions

  
sailing weather and tide predictions

DW7126 Lourinha PT weather

date/time (UTC)wind fromknots sea level pressurealtimeterstation pressurevisibilityair tempwater tempwave heightnotes
2014-Apr-20 21:50 058 3 gusting 4 12.8
2014-Apr-20 21:45 056 0 gusting 4 12.8
2014-Apr-20 21:40 058 2 gusting 4 12.8
2014-Apr-20 21:35 057 2 gusting 4 12.8
2014-Apr-20 21:30 046 12.8
2014-Apr-20 21:25 040 1 gusting 5 12.8
2014-Apr-20 21:20 045 1 gusting 5 12.8
2014-Apr-20 21:15 032 2 gusting 5 12.8
2014-Apr-20 21:10 037 0 gusting 6 12.8
2014-Apr-20 21:05 018 2 gusting 8 12.8
2014-Apr-20 21:00 037 3 gusting 8 12.8
2014-Apr-20 20:55 034 2 gusting 7 12.2
2014-Apr-20 20:50 069 3 gusting 9 12.2
2014-Apr-20 20:45 019 4 gusting 9 12.2
2014-Apr-20 20:40 028 6 gusting 9 12.2
2014-Apr-20 20:35 040 4 gusting 7 12.2
2014-Apr-20 20:30 044 3 gusting 11 12.2
2014-Apr-20 20:25 028 4 gusting 11 12.8
2014-Apr-20 20:20 030 3 gusting 6 12.8
2014-Apr-20 20:15 049 3 gusting 6 12.8
2014-Apr-20 20:10 032 2 gusting 7 12.8
2014-Apr-20 20:05 022 4 gusting 8 12.8
2014-Apr-20 20:00 360 5 gusting 8 12.8
2014-Apr-20 19:55 034 0 gusting 4 12.8
2014-Apr-20 19:50 047 1 gusting 4 12.8
2014-Apr-20 19:45 035 1 gusting 4 12.8
2014-Apr-20 19:40 046 1 gusting 3 12.8
2014-Apr-20 19:35 042 0 gusting 2 12.8
2014-Apr-20 19:30 042 0 gusting 3 12.8
2014-Apr-20 19:25 042 1 gusting 4 12.8
2014-Apr-20 19:20 049 2 gusting 4 12.8
2014-Apr-20 19:15 056 2 gusting 4 12.8
2014-Apr-20 19:10 051 2 gusting 4 12.8
2014-Apr-20 19:05 040 2 gusting 4 12.8
2014-Apr-20 19:00 040 2 gusting 6 12.8
2014-Apr-20 18:55 036 5 gusting 6 13.3
2014-Apr-20 18:50 026 3 gusting 5 13.3
2014-Apr-20 18:45 028 3 gusting 5 13.3
2014-Apr-20 18:40 035 2 gusting 4 13.3
2014-Apr-20 18:35 038 1 gusting 4 13.3
2014-Apr-20 18:30 029 2 gusting 5 13.3
2014-Apr-20 18:25 021 3 gusting 5 13.3
2014-Apr-20 18:20 022 2 gusting 4 13.3
2014-Apr-20 18:15 022 3 gusting 4 13.3
2014-Apr-20 18:10 032 0 gusting 3 13.3
2014-Apr-20 18:05 033 1 gusting 3 13.3
2014-Apr-20 18:00 030 0 gusting 3 13.3
2014-Apr-20 17:55 030 0 gusting 3 13.3
2014-Apr-20 17:50 030 0 gusting 2 13.3
2014-Apr-20 17:45 030 0 gusting 2 13.9
2014-Apr-20 17:40 030 13.9
2014-Apr-20 17:35 030 0 gusting 4 13.3
2014-Apr-20 17:30 030 0 gusting 4 13.9
2014-Apr-20 17:25 046 0 gusting 3 13.9
2014-Apr-20 17:20 059 1 gusting 3 13.9
2014-Apr-20 17:15 049 0 gusting 3 13.3
2014-Apr-20 17:10 049 1 gusting 5 13.3
2014-Apr-20 17:05 052 3 gusting 5 13.3
2014-Apr-20 17:00 036 0 gusting 3 13.9
2014-Apr-20 16:55 048 0 gusting 3 13.3
2014-Apr-20 16:50 048 1 gusting 3 13.3
2014-Apr-20 16:45 053 1 gusting 4 13.3
2014-Apr-20 16:40 056 3 gusting 4 13.3
2014-Apr-20 16:35 026 3 gusting 5 13.3
2014-Apr-20 16:30 026 3 gusting 5 13.3
2014-Apr-20 16:25 028 3 gusting 5 13.3
2014-Apr-20 16:20 332 1 gusting 4 13.3
2014-Apr-20 16:15 306 3 gusting 4 13.3
2014-Apr-20 16:10 323 2 gusting 3 13.3
2014-Apr-20 16:05 059 0 gusting 2 13.3
2014-Apr-20 16:00 118 13.3
2014-Apr-20 15:55 120 0 gusting 2 12.8
2014-Apr-20 15:50 197 12.8
2014-Apr-20 15:45 197 12.8
2014-Apr-20 15:40 197 12.8
2014-Apr-20 15:35 197 0 gusting 2 13.3
2014-Apr-20 15:30 196 13.3
2014-Apr-20 15:25 196 13.3
2014-Apr-20 15:20 196 0 gusting 4 13.3
2014-Apr-20 15:15 196 3 gusting 6 13.3
2014-Apr-20 15:10 360 4 gusting 6 13.3
2014-Apr-20 15:05 200 3 gusting 6 12.8
2014-Apr-20 15:00 217 5 gusting 9 12.8
2014-Apr-20 14:55 360 6 gusting 13 12.8
2014-Apr-20 14:51 200 7 gusting 13 12.8
2014-Apr-20 14:45 215 10 gusting 14 12.8
2014-Apr-20 14:40 360 11 gusting 14 13.3
2014-Apr-20 14:35 360 11 gusting 13 13.3
2014-Apr-20 14:30 360 11 gusting 15 13.3
2014-Apr-20 14:25 242 10 gusting 17 13.9
2014-Apr-20 14:20 360 13 gusting 19 13.9
2014-Apr-20 14:15 360 15 gusting 19 15.0
2014-Apr-20 14:10 360 7 gusting 9 16.1
2014-Apr-20 14:06 247 4 gusting 7 16.7
2014-Apr-20 14:00 157 1 gusting 4 17.2
2014-Apr-20 13:55 050 1 gusting 6 17.2
2014-Apr-20 13:50 060 3 gusting 6 17.2
2014-Apr-20 13:45 096 2 gusting 6 17.2
2014-Apr-20 13:40 119 1 gusting 7 17.2
2014-Apr-20 13:36 103 3 gusting 6 17.2
2014-Apr-20 13:30 054 3 gusting 6 17.2
2014-Apr-20 13:25 099 3 gusting 7 17.2
2014-Apr-20 13:20 142 4 gusting 8 17.2
2014-Apr-20 13:15 115 4 gusting 8 17.2
2014-Apr-20 13:10 098 3 gusting 7 17.2
2014-Apr-20 13:05 078 3 gusting 7 17.2
2014-Apr-20 13:01 102 0 gusting 8 17.2
2014-Apr-20 12:55 094 4 gusting 10 17.2
2014-Apr-20 12:50 204 4 gusting 10 17.2
2014-Apr-20 12:45 178 3 gusting 7 17.2
2014-Apr-20 12:40 115 4 gusting 8 17.2
2014-Apr-20 12:35 131 5 gusting 7 17.2
2014-Apr-20 12:31 112 3 gusting 10 17.2
2014-Apr-20 12:25 112 5 gusting 10 16.7
2014-Apr-20 12:20 119 7 gusting 10 16.7
2014-Apr-20 12:15 137 6 gusting 11 16.7
2014-Apr-20 12:11 360 7 gusting 11 16.7
2014-Apr-20 12:05 112 6 gusting 12 16.7
2014-Apr-20 12:01 136 7 gusting 12 16.1
2014-Apr-20 11:55 113 8 gusting 12 16.1
2014-Apr-20 11:51 360 6 gusting 10 16.1
2014-Apr-20 11:45 123 6 gusting 13 16.1
2014-Apr-20 11:40 140 7 gusting 14 16.1
2014-Apr-20 11:35 102 9 gusting 14 15.6
2014-Apr-20 11:31 098 7 gusting 13 15.6
2014-Apr-20 11:25 117 6 gusting 14 15.6
2014-Apr-20 11:20 148 8 gusting 14 15.6
2014-Apr-20 11:15 107 6 gusting 12 15.6
2014-Apr-20 11:10 360 6 gusting 12 15.0
2014-Apr-20 11:05 120 8 gusting 12 15.0
2014-Apr-20 11:01 098 8 gusting 11 15.0
2014-Apr-20 10:56 101 8 gusting 13 15.0
2014-Apr-20 10:50 101 8 gusting 13 15.0
2014-Apr-20 10:45 097 5 gusting 13 15.0
2014-Apr-20 10:40 116 8 gusting 13 14.4
2014-Apr-20 10:35 109 6 gusting 11 14.4
2014-Apr-20 10:30 107 6 gusting 11 14.4
2014-Apr-20 10:26 360 6 gusting 11 14.4
2014-Apr-20 10:20 360 6 gusting 11 13.9
2014-Apr-20 10:15 140 8 gusting 11 13.9
2014-Apr-20 10:10 360 6 gusting 9 13.9
2014-Apr-20 10:05 360 6 gusting 9 13.9
2014-Apr-20 10:00 360 6 gusting 11 13.3
2014-Apr-20 09:55 090 6 gusting 11 13.3
2014-Apr-20 09:50 110 6 gusting 8 13.3
2014-Apr-20 09:46 360 6 gusting 8 13.3
2014-Apr-20 09:41 360 6 gusting 9 13.3
2014-Apr-20 09:35 103 6 gusting 7 13.3
2014-Apr-20 09:31 085 6 gusting 8 13.3
2014-Apr-20 09:25 360 6 gusting 8 13.3
2014-Apr-20 09:21 092 5 gusting 11 13.3
2014-Apr-20 09:16 077 6 gusting 6 13.3
2014-Apr-20 09:10 075 5 gusting 8 13.3
2014-Apr-20 09:05 091 5 gusting 8 13.3
2014-Apr-20 09:01 111 5 gusting 7 13.3
2014-Apr-20 08:55 098 5 gusting 11 13.3
2014-Apr-20 08:51 073 6 gusting 11 13.3
2014-Apr-20 08:45 067 5 gusting 9 13.3
2014-Apr-20 08:40 360 6 gusting 11 13.3
2014-Apr-20 08:35 360 6 gusting 11 13.3
2014-Apr-20 08:30 076 6 gusting 9 13.3
2014-Apr-20 08:25 067 6 gusting 9 12.8
2014-Apr-20 08:20 092 6 gusting 10 12.8
2014-Apr-20 08:15 096 6 gusting 10 12.8
2014-Apr-20 08:11 360 8 gusting 12 12.8
2014-Apr-20 08:06 360 6 gusting 9 12.8
2014-Apr-20 08:00 360 6 gusting 11 12.8
2014-Apr-20 07:56 091 7 gusting 11 12.2
2014-Apr-20 07:51 360 7 gusting 9 12.2
2014-Apr-20 07:45 090 6 gusting 9 12.2
2014-Apr-20 07:40 107 6 gusting 9 12.2
2014-Apr-20 07:36 119 6 gusting 8 12.2
2014-Apr-20 07:30 105 6 gusting 9 12.2
2014-Apr-20 07:25 104 6 gusting 8 12.2
2014-Apr-20 07:21 081 6 gusting 7 12.2
2014-Apr-20 07:15 086 6 gusting 8 11.7
2014-Apr-20 07:11 090 6 gusting 8 11.7
2014-Apr-20 07:05 086 6 gusting 8 11.7
2014-Apr-19 23:25 005 0 gusting 3 11.1
2014-Apr-19 23:20 360 2 gusting 3 11.1
2014-Apr-19 23:15 275 11.7
2014-Apr-19 23:10 275 11.7
2014-Apr-19 20:50 299 13.3
2014-Apr-19 20:45 299 13.3
2014-Apr-19 20:40 299 13.9
2014-Apr-19 20:35 299 13.3
2014-Apr-19 20:30 299 13.9
2014-Apr-19 20:25 299 13.9
2014-Apr-19 20:20 299 2 gusting 3 13.9
2014-Apr-19 20:15 300 2 gusting 3 13.9
2014-Apr-19 20:10 300 1 gusting 3 13.9
2014-Apr-19 20:05 301 0 gusting 4 13.9
2014-Apr-19 20:00 303 1 gusting 4 13.9
2014-Apr-19 19:55 283 0 gusting 3 13.9
2014-Apr-19 19:50 279 1 gusting 3 13.9
2014-Apr-19 19:45 279 13.9
2014-Apr-19 19:40 263 5 gusting 8 13.9
2014-Apr-19 19:35 261 6 gusting 7 13.9
2014-Apr-19 19:30 270 3 gusting 5 13.9
2014-Apr-19 19:25 290 1 gusting 3 13.9
2014-Apr-19 19:20 290 2 gusting 4 13.9
2014-Apr-19 19:15 277 3 gusting 5 13.9
2014-Apr-19 19:10 360 3 gusting 5 13.9
2014-Apr-19 19:05 273 1 gusting 4 13.9
2014-Apr-19 19:00 281 3 gusting 4 13.9
2014-Apr-19 18:55 284 0 gusting 4 13.9
2014-Apr-19 18:50 296 2 gusting 5 13.9
2014-Apr-19 18:45 297 2 gusting 6 14.4
2014-Apr-19 18:40 286 3 gusting 6 14.4
2014-Apr-19 18:35 280 4 gusting 6 14.4
2014-Apr-19 18:30 297 4 gusting 7 14.4
2014-Apr-19 18:25 284 4 gusting 7 14.4
2014-Apr-19 18:20 246 4 gusting 6 14.4
2014-Apr-19 18:15 294 4 gusting 6 14.4
2014-Apr-19 18:10 291 3 gusting 6 14.4
2014-Apr-19 18:05 304 4 gusting 6 14.4
2014-Apr-19 18:00 360 5 gusting 6 14.4
2014-Apr-19 17:55 296 3 gusting 6 14.4
2014-Apr-19 17:50 296 3 gusting 7 14.4
2014-Apr-19 17:45 281 3 gusting 7 14.4
2014-Apr-19 17:40 298 4 gusting 6 14.4